owner,sensor,date,latitude,longitude,air_pressure(mBar),qcFlag 
WAVCIS,ioos:station:WAVCIS:CSI15:1,2009-03-01T00:00:00Z,28.8332,-90.8320,1013.62,11111222 
WAVCIS,ioos:station:WAVCIS:CSI15:1,2009-03-01T01:00:00Z,28.8332,-90.8320,1014.75,11111222 
WAVCIS,ioos:station:WAVCIS:CSI15:1,2009-03-01T02:00:00Z,28.8332,-90.8320,1015.75,11111222 
WAVCIS,ioos:station:WAVCIS:CSI15:1,2009-03-01T03:00:00Z,28.8332,-90.8320,1017.19,11111222 
WAVCIS,ioos:station:WAVCIS:CSI15:1,2009-03-01T04:00:00Z,28.8332,-90.8320,1017.72,11111222 
WAVCIS,ioos:station:WAVCIS:CSI15:1,2009-03-01T05:00:00Z,28.8332,-90.8320,1017.76,11111222 
WAVCIS,ioos:station:WAVCIS:CSI15:1,2009-03-01T06:00:00Z,28.8332,-90.8320,1018.03,11111222 
WAVCIS,ioos:station:WAVCIS:CSI15:1,2009-03-01T07:00:00Z,28.8332,-90.8320,1018.42,11111222 
WAVCIS,ioos:station:WAVCIS:CSI15:1,2009-03-01T08:00:00Z,28.8332,-90.8320,1018.8,11111222 
WAVCIS,ioos:station:WAVCIS:CSI15:1,2009-03-01T09:00:00Z,28.8332,-90.8320,1018.89,11111222 
WAVCIS,ioos:station:WAVCIS:CSI15:1,2009-03-01T10:00:00Z,28.8332,-90.8320,1018.88,11111222 
WAVCIS,ioos:station:WAVCIS:CSI15:1,2009-03-01T11:00:00Z,28.8332,-90.8320,1019.33,11111222 
WAVCIS,ioos:station:WAVCIS:CSI15:1,2009-03-01T12:00:00Z,28.8332,-90.8320,1020.66,11111222 
WAVCIS,ioos:station:WAVCIS:CSI15:1,2009-03-01T13:00:00Z,28.8332,-90.8320,1021.57,11111222 
WAVCIS,ioos:station:WAVCIS:CSI15:1,2009-03-01T14:00:00Z,28.8332,-90.8320,1022.29,11111222 
WAVCIS,ioos:station:WAVCIS:CSI15:1,2009-03-01T15:00:00Z,28.8332,-90.8320,1023.05,11111222 
WAVCIS,ioos:station:WAVCIS:CSI15:1,2009-03-01T16:00:00Z,28.8332,-90.8320,1023.4,11111222 
WAVCIS,ioos:station:WAVCIS:CSI15:1,2009-03-01T17:00:00Z,28.8332,-90.8320,1023.56,11111222 
WAVCIS,ioos:station:WAVCIS:CSI15:1,2009-03-01T18:00:00Z,28.8332,-90.8320,1022.86,11111222 
WAVCIS,ioos:station:WAVCIS:CSI15:1,2009-03-01T19:00:00Z,28.8332,-90.8320,1022.07,11111222 
WAVCIS,ioos:station:WAVCIS:CSI15:1,2009-03-01T20:00:00Z,28.8332,-90.8320,1021.45,11111222 
WAVCIS,ioos:station:WAVCIS:CSI15:1,2009-03-01T21:00:00Z,28.8332,-90.8320,1021.18,11111222 
WAVCIS,ioos:station:WAVCIS:CSI15:1,2009-03-01T22:00:00Z,28.8332,-90.8320,1020.72,11111222 
WAVCIS,ioos:station:WAVCIS:CSI15:1,2009-03-01T23:00:00Z,28.8332,-90.8320,1020.75,11111222 
WAVCIS,ioos:station:WAVCIS:CSI15:1,2009-03-02T00:00:00Z,28.8332,-90.8320,1020.97,11111222 
WAVCIS,ioos:station:WAVCIS:CSI15:1,2009-03-02T01:00:00Z,28.8332,-90.8320,1021.54,11111222 
WAVCIS,ioos:station:WAVCIS:CSI15:1,2009-03-02T02:00:00Z,28.8332,-90.8320,1021.82,11111222 
WAVCIS,ioos:station:WAVCIS:CSI15:1,2009-03-02T03:00:00Z,28.8332,-90.8320,1022.62,11111222 
WAVCIS,ioos:station:WAVCIS:CSI15:1,2009-03-02T04:00:00Z,28.8332,-90.8320,1023.35,11111222 
WAVCIS,ioos:station:WAVCIS:CSI15:1,2009-03-02T05:00:00Z,28.8332,-90.8320,1023.23,11111222 
WAVCIS,ioos:station:WAVCIS:CSI15:1,2009-03-02T06:00:00Z,28.8332,-90.8320,1022.92,11111222 
WAVCIS,ioos:station:WAVCIS:CSI15:1,2009-03-02T07:00:00Z,28.8332,-90.8320,1023.32,11111222 
WAVCIS,ioos:station:WAVCIS:CSI15:1,2009-03-02T08:00:00Z,28.8332,-90.8320,1023.17,11111222 
WAVCIS,ioos:station:WAVCIS:CSI15:1,2009-03-02T09:00:00Z,28.8332,-90.8320,1023.2,11111222 
WAVCIS,ioos:station:WAVCIS:CSI15:1,2009-03-02T10:00:00Z,28.8332,-90.8320,1022.93,11111222 
WAVCIS,ioos:station:WAVCIS:CSI15:1,2009-03-02T11:00:00Z,28.8332,-90.8320,1022.81,11111222 
WAVCIS,ioos:station:WAVCIS:CSI15:1,2009-03-02T12:00:00Z,28.8332,-90.8320,1023.11,11111222 
WAVCIS,ioos:station:WAVCIS:CSI15:1,2009-03-02T13:00:00Z,28.8332,-90.8320,1023.45,11111222 
WAVCIS,ioos:station:WAVCIS:CSI15:1,2009-03-02T14:00:00Z,28.8332,-90.8320,1024.41,11111222 
WAVCIS,ioos:station:WAVCIS:CSI15:1,2009-03-02T15:00:00Z,28.8332,-90.8320,1024.26,11111222 
WAVCIS,ioos:station:WAVCIS:CSI15:1,2009-03-02T16:00:00Z,28.8332,-90.8320,1024.21,11111222 
WAVCIS,ioos:station:WAVCIS:CSI15:1,2009-03-02T17:00:00Z,28.8332,-90.8320,1024.12,11111222 
WAVCIS,ioos:station:WAVCIS:CSI15:1,2009-03-02T18:00:00Z,28.8332,-90.8320,1023.5,11111222 
WAVCIS,ioos:station:WAVCIS:CSI15:1,2009-03-02T19:00:00Z,28.8332,-90.8320,1022.94,11111222 
WAVCIS,ioos:station:WAVCIS:CSI15:1,2009-03-02T20:00:00Z,28.8332,-90.8320,1022.07,11111222 
WAVCIS,ioos:station:WAVCIS:CSI15:1,2009-03-02T21:00:00Z,28.8332,-90.8320,1021.84,11111222 
WAVCIS,ioos:station:WAVCIS:CSI15:1,2009-03-02T22:00:00Z,28.8332,-90.8320,1021.3,11111222 
WAVCIS,ioos:station:WAVCIS:CSI15:1,2009-03-02T23:00:00Z,28.8332,-90.8320,1021.29,11111222 
WAVCIS,ioos:station:WAVCIS:CSI15:1,2009-03-03T00:00:00Z,28.8332,-90.8320,1021.2,11111222 
WAVCIS,ioos:station:WAVCIS:CSI15:1,2009-03-03T01:00:00Z,28.8332,-90.8320,1021.83,11111222 
WAVCIS,ioos:station:WAVCIS:CSI15:1,2009-03-03T02:00:00Z,28.8332,-90.8320,1022.29,11111222 
WAVCIS,ioos:station:WAVCIS:CSI15:1,2009-03-03T03:00:00Z,28.8332,-90.8320,1022.69,11111222 
WAVCIS,ioos:station:WAVCIS:CSI15:1,2009-03-03T04:00:00Z,28.8332,-90.8320,1022.42,11111222 
WAVCIS,ioos:station:WAVCIS:CSI15:1,2009-03-03T05:00:00Z,28.8332,-90.8320,1022.11,11111222 
WAVCIS,ioos:station:WAVCIS:CSI15:1,2009-03-03T06:00:00Z,28.8332,-90.8320,1022.01,11111222 
WAVCIS,ioos:station:WAVCIS:CSI15:1,2009-03-03T07:00:00Z,28.8332,-90.8320,1022.24,11111222 
WAVCIS,ioos:station:WAVCIS:CSI15:1,2009-03-03T08:00:00Z,28.8332,-90.8320,1021.95,11111222 
WAVCIS,ioos:station:WAVCIS:CSI15:1,2009-03-03T09:00:00Z,28.8332,-90.8320,1022.05,11111222 
WAVCIS,ioos:station:WAVCIS:CSI15:1,2009-03-03T10:00:00Z,28.8332,-90.8320,1022.1,11111222 
WAVCIS,ioos:station:WAVCIS:CSI15:1,2009-03-03T11:00:00Z,28.8332,-90.8320,1022.49,11111222 
WAVCIS,ioos:station:WAVCIS:CSI15:1,2009-03-03T12:00:00Z,28.8332,-90.8320,1023.09,11111222 
WAVCIS,ioos:station:WAVCIS:CSI15:1,2009-03-03T13:00:00Z,28.8332,-90.8320,1023.68,11111222 
WAVCIS,ioos:station:WAVCIS:CSI15:1,2009-03-03T14:00:00Z,28.8332,-90.8320,1024.02,11111222 
WAVCIS,ioos:station:WAVCIS:CSI15:1,2009-03-03T15:00:00Z,28.8332,-90.8320,1024.56,11111222 
WAVCIS,ioos:station:WAVCIS:CSI15:1,2009-03-03T16:00:00Z,28.8332,-90.8320,1024.98,11111222 
WAVCIS,ioos:station:WAVCIS:CSI15:1,2009-03-03T17:00:00Z,28.8332,-90.8320,1024.73,11111222 
WAVCIS,ioos:station:WAVCIS:CSI15:1,2009-03-03T18:00:00Z,28.8332,-90.8320,1024.26,11111222 
WAVCIS,ioos:station:WAVCIS:CSI15:1,2009-03-03T19:00:00Z,28.8332,-90.8320,1023.54,11111222 
WAVCIS,ioos:station:WAVCIS:CSI15:1,2009-03-03T20:00:00Z,28.8332,-90.8320,1023.18,11111222 
WAVCIS,ioos:station:WAVCIS:CSI15:1,2009-03-03T21:00:00Z,28.8332,-90.8320,1023.16,11111222 
WAVCIS,ioos:station:WAVCIS:CSI15:1,2009-03-03T22:00:00Z,28.8332,-90.8320,1023.39,11111222 
WAVCIS,ioos:station:WAVCIS:CSI15:1,2009-03-03T23:00:00Z,28.8332,-90.8320,1023.24,11111222 
WAVCIS,ioos:station:WAVCIS:CSI15:1,2009-03-04T00:00:00Z,28.8332,-90.8320,1023.11,11111222 
WAVCIS,ioos:station:WAVCIS:CSI15:1,2009-03-04T01:00:00Z,28.8332,-90.8320,1022.93,11111222 
WAVCIS,ioos:station:WAVCIS:CSI15:1,2009-03-04T02:00:00Z,28.8332,-90.8320,1022.95,11111222 
WAVCIS,ioos:station:WAVCIS:CSI15:1,2009-03-04T03:00:00Z,28.8332,-90.8320,1023.44,11111222 
WAVCIS,ioos:station:WAVCIS:CSI15:1,2009-03-04T04:00:00Z,28.8332,-90.8320,1023.06,11111222 
WAVCIS,ioos:station:WAVCIS:CSI15:1,2009-03-04T05:00:00Z,28.8332,-90.8320,1022.88,11111222 
WAVCIS,ioos:station:WAVCIS:CSI15:1,2009-03-04T06:00:00Z,28.8332,-90.8320,1022.16,11111222 
WAVCIS,ioos:station:WAVCIS:CSI15:1,2009-03-04T07:00:00Z,28.8332,-90.8320,1022.07,11111222 
WAVCIS,ioos:station:WAVCIS:CSI15:1,2009-03-04T08:00:00Z,28.8332,-90.8320,1021.37,11111222 
WAVCIS,ioos:station:WAVCIS:CSI15:1,2009-03-04T09:00:00Z,28.8332,-90.8320,1021.01,11111222 
WAVCIS,ioos:station:WAVCIS:CSI15:1,2009-03-04T10:00:00Z,28.8332,-90.8320,1020.9,11111222 
WAVCIS,ioos:station:WAVCIS:CSI15:1,2009-03-04T11:00:00Z,28.8332,-90.8320,1020.96,11111222 
WAVCIS,ioos:station:WAVCIS:CSI15:1,2009-03-04T12:00:00Z,28.8332,-90.8320,1021.4,11111222 
WAVCIS,ioos:station:WAVCIS:CSI15:1,2009-03-04T13:00:00Z,28.8332,-90.8320,1021.96,11111222 
WAVCIS,ioos:station:WAVCIS:CSI15:1,2009-03-04T14:00:00Z,28.8332,-90.8320,1022.55,11111222 
WAVCIS,ioos:station:WAVCIS:CSI15:1,2009-03-04T15:00:00Z,28.8332,-90.8320,1023.2,11111222 
WAVCIS,ioos:station:WAVCIS:CSI15:1,2009-03-04T16:00:00Z,28.8332,-90.8320,1023.52,11111222 
WAVCIS,ioos:station:WAVCIS:CSI15:1,2009-03-04T17:00:00Z,28.8332,-90.8320,1023.44,11111222 
WAVCIS,ioos:station:WAVCIS:CSI15:1,2009-03-04T18:00:00Z,28.8332,-90.8320,1023.03,11111222 
WAVCIS,ioos:station:WAVCIS:CSI15:1,2009-03-04T19:00:00Z,28.8332,-90.8320,1022.51,11111222 
WAVCIS,ioos:station:WAVCIS:CSI15:1,2009-03-04T20:00:00Z,28.8332,-90.8320,1021.88,11111222 
WAVCIS,ioos:station:WAVCIS:CSI15:1,2009-03-04T21:00:00Z,28.8332,-90.8320,1021.36,11111222 
WAVCIS,ioos:station:WAVCIS:CSI15:1,2009-03-04T22:00:00Z,28.8332,-90.8320,1021.17,11111222 
WAVCIS,ioos:station:WAVCIS:CSI15:1,2009-03-04T23:00:00Z,28.8332,-90.8320,1021.19,11111222 
WAVCIS,ioos:station:WAVCIS:CSI15:1,2009-03-05T00:00:00Z,28.8332,-90.8320,1021.28,11111222 
WAVCIS,ioos:station:WAVCIS:CSI15:1,2009-03-05T01:00:00Z,28.8332,-90.8320,1021.58,11111222 
WAVCIS,ioos:station:WAVCIS:CSI15:1,2009-03-05T02:00:00Z,28.8332,-90.8320,1021.87,11111222 
WAVCIS,ioos:station:WAVCIS:CSI15:1,2009-03-05T03:00:00Z,28.8332,-90.8320,1022.14,11111222 
WAVCIS,ioos:station:WAVCIS:CSI15:1,2009-03-05T04:00:00Z,28.8332,-90.8320,1022.06,11111222 
WAVCIS,ioos:station:WAVCIS:CSI15:1,2009-03-05T05:00:00Z,28.8332,-90.8320,1021.72,11111222 
WAVCIS,ioos:station:WAVCIS:CSI15:1,2009-03-05T06:00:00Z,28.8332,-90.8320,1021.5,11111222 
WAVCIS,ioos:station:WAVCIS:CSI15:1,2009-03-05T07:00:00Z,28.8332,-90.8320,1021.46,11111222 
WAVCIS,ioos:station:WAVCIS:CSI15:1,2009-03-05T08:00:00Z,28.8332,-90.8320,1021.2,11111222 
WAVCIS,ioos:station:WAVCIS:CSI15:1,2009-03-05T09:00:00Z,28.8332,-90.8320,1020.81,11111222 
WAVCIS,ioos:station:WAVCIS:CSI15:1,2009-03-05T10:00:00Z,28.8332,-90.8320,1020.76,11111222 
WAVCIS,ioos:station:WAVCIS:CSI15:1,2009-03-05T11:00:00Z,28.8332,-90.8320,1021.26,11111222 
WAVCIS,ioos:station:WAVCIS:CSI15:1,2009-03-05T12:00:00Z,28.8332,-90.8320,1021.87,11111222 
WAVCIS,ioos:station:WAVCIS:CSI15:1,2009-03-05T13:00:00Z,28.8332,-90.8320,1022.32,11111222 
WAVCIS,ioos:station:WAVCIS:CSI15:1,2009-03-05T14:00:00Z,28.8332,-90.8320,1023.01,11111222 
WAVCIS,ioos:station:WAVCIS:CSI15:1,2009-03-05T15:00:00Z,28.8332,-90.8320,1023.45,11111222 
WAVCIS,ioos:station:WAVCIS:CSI15:1,2009-03-05T16:00:00Z,28.8332,-90.8320,1023.72,11111222 
WAVCIS,ioos:station:WAVCIS:CSI15:1,2009-03-05T17:00:00Z,28.8332,-90.8320,1023.85,11111222 
WAVCIS,ioos:station:WAVCIS:CSI15:1,2009-03-05T18:00:00Z,28.8332,-90.8320,1023.54,11111222 
WAVCIS,ioos:station:WAVCIS:CSI15:1,2009-03-05T19:00:00Z,28.8332,-90.8320,1022.88,11111222 
WAVCIS,ioos:station:WAVCIS:CSI15:1,2009-03-05T20:00:00Z,28.8332,-90.8320,1022.17,11111222 
WAVCIS,ioos:station:WAVCIS:CSI15:1,2009-03-05T21:00:00Z,28.8332,-90.8320,1021.98,11111222 
WAVCIS,ioos:station:WAVCIS:CSI15:1,2009-03-05T22:00:00Z,28.8332,-90.8320,1021.72,11111222 
WAVCIS,ioos:station:WAVCIS:CSI15:1,2009-03-05T23:00:00Z,28.8332,-90.8320,1021.52,11111222 
WAVCIS,ioos:station:WAVCIS:CSI15:1,2009-03-06T00:00:00Z,28.8332,-90.8320,1021.81,11111222 
WAVCIS,ioos:station:WAVCIS:CSI15:1,2009-03-06T01:00:00Z,28.8332,-90.8320,1021.85,11111222 
WAVCIS,ioos:station:WAVCIS:CSI15:1,2009-03-06T02:00:00Z,28.8332,-90.8320,1022.08,11111222 
WAVCIS,ioos:station:WAVCIS:CSI15:1,2009-03-06T03:00:00Z,28.8332,-90.8320,1022.39,11111222 
WAVCIS,ioos:station:WAVCIS:CSI15:1,2009-03-06T04:00:00Z,28.8332,-90.8320,1022.71,11111222 
WAVCIS,ioos:station:WAVCIS:CSI15:1,2009-03-06T05:00:00Z,28.8332,-90.8320,1022.72,11111222 
WAVCIS,ioos:station:WAVCIS:CSI15:1,2009-03-06T06:00:00Z,28.8332,-90.8320,1022.6,11111222 
WAVCIS,ioos:station:WAVCIS:CSI15:1,2009-03-06T07:00:00Z,28.8332,-90.8320,1022.41,11111222 
WAVCIS,ioos:station:WAVCIS:CSI15:1,2009-03-06T08:00:00Z,28.8332,-90.8320,1022.21,11111222 
WAVCIS,ioos:station:WAVCIS:CSI15:1,2009-03-06T09:00:00Z,28.8332,-90.8320,1021.66,11111222 
WAVCIS,ioos:station:WAVCIS:CSI15:1,2009-03-06T10:00:00Z,28.8332,-90.8320,1021.42,11111222 
WAVCIS,ioos:station:WAVCIS:CSI15:1,2009-03-06T11:00:00Z,28.8332,-90.8320,1021.83,11111222 
WAVCIS,ioos:station:WAVCIS:CSI15:1,2009-03-06T12:00:00Z,28.8332,-90.8320,1021.96,11111222 
WAVCIS,ioos:station:WAVCIS:CSI15:1,2009-03-06T13:00:00Z,28.8332,-90.8320,1022.21,11111222 
WAVCIS,ioos:station:WAVCIS:CSI15:1,2009-03-06T14:00:00Z,28.8332,-90.8320,1022.52,11111222 
WAVCIS,ioos:station:WAVCIS:CSI15:1,2009-03-06T15:00:00Z,28.8332,-90.8320,1022.78,11111222 
WAVCIS,ioos:station:WAVCIS:CSI15:1,2009-03-06T16:00:00Z,28.8332,-90.8320,1023.08,11111222 
WAVCIS,ioos:station:WAVCIS:CSI15:1,2009-03-06T17:00:00Z,28.8332,-90.8320,1023.08,11111222 
WAVCIS,ioos:station:WAVCIS:CSI15:1,2009-03-06T18:00:00Z,28.8332,-90.8320,1022.76,11111222 
WAVCIS,ioos:station:WAVCIS:CSI15:1,2009-03-06T19:00:00Z,28.8332,-90.8320,1022.33,11111222 
WAVCIS,ioos:station:WAVCIS:CSI15:1,2009-03-06T20:00:00Z,28.8332,-90.8320,1021.74,11111222 
WAVCIS,ioos:station:WAVCIS:CSI15:1,2009-03-06T21:00:00Z,28.8332,-90.8320,1021.31,11111222 
WAVCIS,ioos:station:WAVCIS:CSI15:1,2009-03-06T22:00:00Z,28.8332,-90.8320,1020.97,11111222 
WAVCIS,ioos:station:WAVCIS:CSI15:1,2009-03-06T23:00:00Z,28.8332,-90.8320,1020.62,11111222 
WAVCIS,ioos:station:WAVCIS:CSI15:1,2009-03-07T00:00:00Z,28.8332,-90.8320,1020.59,11111222 
WAVCIS,ioos:station:WAVCIS:CSI15:1,2009-03-07T01:00:00Z,28.8332,-90.8320,1020.58,11111222 
WAVCIS,ioos:station:WAVCIS:CSI15:1,2009-03-07T02:00:00Z,28.8332,-90.8320,1020.72,11111222 
WAVCIS,ioos:station:WAVCIS:CSI15:1,2009-03-07T03:00:00Z,28.8332,-90.8320,1020.84,11111222 
WAVCIS,ioos:station:WAVCIS:CSI15:1,2009-03-07T04:00:00Z,28.8332,-90.8320,1021.0,11111222 
WAVCIS,ioos:station:WAVCIS:CSI15:1,2009-03-07T05:00:00Z,28.8332,-90.8320,1020.68,11111222 
WAVCIS,ioos:station:WAVCIS:CSI15:1,2009-03-07T06:00:00Z,28.8332,-90.8320,1020.2,11111222 
WAVCIS,ioos:station:WAVCIS:CSI15:1,2009-03-07T07:00:00Z,28.8332,-90.8320,1020.19,11111222 
WAVCIS,ioos:station:WAVCIS:CSI15:1,2009-03-07T21:00:00Z,28.8332,-90.8320,1017.93,11111222 
WAVCIS,ioos:station:WAVCIS:CSI15:1,2009-03-07T22:00:00Z,28.8332,-90.8320,1017.4,11111222 
WAVCIS,ioos:station:WAVCIS:CSI15:1,2009-03-07T23:00:00Z,28.8332,-90.8320,1017.11,11111222 
WAVCIS,ioos:station:WAVCIS:CSI15:1,2009-03-08T00:00:00Z,28.8332,-90.8320,1017.39,11111222 
WAVCIS,ioos:station:WAVCIS:CSI15:1,2009-03-08T01:00:00Z,28.8332,-90.8320,1017.16,11111222 
WAVCIS,ioos:station:WAVCIS:CSI15:1,2009-03-08T02:00:00Z,28.8332,-90.8320,1017.3,11111222 
WAVCIS,ioos:station:WAVCIS:CSI15:1,2009-03-08T03:00:00Z,28.8332,-90.8320,1017.64,11111222 
WAVCIS,ioos:station:WAVCIS:CSI15:1,2009-03-08T04:00:00Z,28.8332,-90.8320,1017.72,11111222 
WAVCIS,ioos:station:WAVCIS:CSI15:1,2009-03-08T05:00:00Z,28.8332,-90.8320,1017.32,11111222 
WAVCIS,ioos:station:WAVCIS:CSI15:1,2009-03-08T06:00:00Z,28.8332,-90.8320,1016.59,11111222 
WAVCIS,ioos:station:WAVCIS:CSI15:1,2009-03-08T07:00:00Z,28.8332,-90.8320,1015.8,11111222 
WAVCIS,ioos:station:WAVCIS:CSI15:1,2009-03-08T08:00:00Z,28.8332,-90.8320,1015.37,11111222 
WAVCIS,ioos:station:WAVCIS:CSI15:1,2009-03-08T09:00:00Z,28.8332,-90.8320,1014.97,11111222 
WAVCIS,ioos:station:WAVCIS:CSI15:1,2009-03-08T10:00:00Z,28.8332,-90.8320,1014.97,11111222 
WAVCIS,ioos:station:WAVCIS:CSI15:1,2009-03-08T11:00:00Z,28.8332,-90.8320,1014.7,11111222 
WAVCIS,ioos:station:WAVCIS:CSI15:1,2009-03-08T12:00:00Z,28.8332,-90.8320,1015.77,11111222 
WAVCIS,ioos:station:WAVCIS:CSI15:1,2009-03-08T13:00:00Z,28.8332,-90.8320,1016.69,11111222 
WAVCIS,ioos:station:WAVCIS:CSI15:1,2009-03-08T14:00:00Z,28.8332,-90.8320,1017.36,11111222 
WAVCIS,ioos:station:WAVCIS:CSI15:1,2009-03-08T15:00:00Z,28.8332,-90.8320,1018.04,11111222 
WAVCIS,ioos:station:WAVCIS:CSI15:1,2009-03-08T16:00:00Z,28.8332,-90.8320,1018.3,11111222 
WAVCIS,ioos:station:WAVCIS:CSI15:1,2009-03-08T17:00:00Z,28.8332,-90.8320,1018.53,11111222 
WAVCIS,ioos:station:WAVCIS:CSI15:1,2009-03-08T18:00:00Z,28.8332,-90.8320,1018.46,11111222 
WAVCIS,ioos:station:WAVCIS:CSI15:1,2009-03-08T19:00:00Z,28.8332,-90.8320,1017.83,11111222 
WAVCIS,ioos:station:WAVCIS:CSI15:1,2009-03-08T20:00:00Z,28.8332,-90.8320,1017.2,11111222 
WAVCIS,ioos:station:WAVCIS:CSI15:1,2009-03-08T21:00:00Z,28.8332,-90.8320,1016.9,11111222 
WAVCIS,ioos:station:WAVCIS:CSI15:1,2009-03-08T22:00:00Z,28.8332,-90.8320,1016.4,11111222 
WAVCIS,ioos:station:WAVCIS:CSI15:1,2009-03-08T23:00:00Z,28.8332,-90.8320,1016.42,11111222 
WAVCIS,ioos:station:WAVCIS:CSI15:1,2009-03-09T00:00:00Z,28.8332,-90.8320,1016.88,11111222 
WAVCIS,ioos:station:WAVCIS:CSI15:1,2009-03-09T01:00:00Z,28.8332,-90.8320,1016.54,11111222 
WAVCIS,ioos:station:WAVCIS:CSI15:1,2009-03-09T02:00:00Z,28.8332,-90.8320,1016.7,11111222 
WAVCIS,ioos:station:WAVCIS:CSI15:1,2009-03-09T03:00:00Z,28.8332,-90.8320,1017.25,11111222 
WAVCIS,ioos:station:WAVCIS:CSI15:1,2009-03-09T04:00:00Z,28.8332,-90.8320,1017.49,11111222 
WAVCIS,ioos:station:WAVCIS:CSI15:1,2009-03-09T05:00:00Z,28.8332,-90.8320,1017.54,11111222 
WAVCIS,ioos:station:WAVCIS:CSI15:1,2009-03-09T06:00:00Z,28.8332,-90.8320,1017.51,11111222 
WAVCIS,ioos:station:WAVCIS:CSI15:1,2009-03-09T07:00:00Z,28.8332,-90.8320,1017.24,11111222 
WAVCIS,ioos:station:WAVCIS:CSI15:1,2009-03-09T08:00:00Z,28.8332,-90.8320,1016.89,11111222 
WAVCIS,ioos:station:WAVCIS:CSI15:1,2009-03-09T09:00:00Z,28.8332,-90.8320,1016.43,11111222 
WAVCIS,ioos:station:WAVCIS:CSI15:1,2009-03-09T10:00:00Z,28.8332,-90.8320,1016.58,11111222 
WAVCIS,ioos:station:WAVCIS:CSI15:1,2009-03-09T11:00:00Z,28.8332,-90.8320,1016.81,11111222 
WAVCIS,ioos:station:WAVCIS:CSI15:1,2009-03-09T12:00:00Z,28.8332,-90.8320,1017.29,11111222 
WAVCIS,ioos:station:WAVCIS:CSI15:1,2009-03-09T13:00:00Z,28.8332,-90.8320,1018.06,11111222 
WAVCIS,ioos:station:WAVCIS:CSI15:1,2009-03-09T14:00:00Z,28.8332,-90.8320,1018.75,11111222 
WAVCIS,ioos:station:WAVCIS:CSI15:1,2009-03-09T15:00:00Z,28.8332,-90.8320,1019.15,11111222 
WAVCIS,ioos:station:WAVCIS:CSI15:1,2009-03-09T16:00:00Z,28.8332,-90.8320,1019.63,11111222 
WAVCIS,ioos:station:WAVCIS:CSI15:1,2009-03-09T17:00:00Z,28.8332,-90.8320,1019.53,11111222 
WAVCIS,ioos:station:WAVCIS:CSI15:1,2009-03-09T18:00:00Z,28.8332,-90.8320,1018.95,11111222 
WAVCIS,ioos:station:WAVCIS:CSI15:1,2009-03-09T19:00:00Z,28.8332,-90.8320,1018.54,11111222 
WAVCIS,ioos:station:WAVCIS:CSI15:1,2009-03-09T20:00:00Z,28.8332,-90.8320,1017.79,11111222 
WAVCIS,ioos:station:WAVCIS:CSI15:1,2009-03-09T21:00:00Z,28.8332,-90.8320,1017.16,11111222 
WAVCIS,ioos:station:WAVCIS:CSI15:1,2009-03-09T22:00:00Z,28.8332,-90.8320,1016.82,11111222 
WAVCIS,ioos:station:WAVCIS:CSI15:1,2009-03-09T23:00:00Z,28.8332,-90.8320,1016.77,11111222 
WAVCIS,ioos:station:WAVCIS:CSI15:1,2009-03-10T00:00:00Z,28.8332,-90.8320,1016.99,11111222 
WAVCIS,ioos:station:WAVCIS:CSI15:1,2009-03-10T01:00:00Z,28.8332,-90.8320,1017.3,11111222 
WAVCIS,ioos:station:WAVCIS:CSI15:1,2009-03-10T02:00:00Z,28.8332,-90.8320,1017.44,11111222 
WAVCIS,ioos:station:WAVCIS:CSI15:1,2009-03-10T03:00:00Z,28.8332,-90.8320,1017.67,11111222 
WAVCIS,ioos:station:WAVCIS:CSI15:1,2009-03-10T04:00:00Z,28.8332,-90.8320,1017.57,11111222 
WAVCIS,ioos:station:WAVCIS:CSI15:1,2009-03-10T05:00:00Z,28.8332,-90.8320,1017.32,11111222 
WAVCIS,ioos:station:WAVCIS:CSI15:1,2009-03-10T06:00:00Z,28.8332,-90.8320,1016.81,11111222 
WAVCIS,ioos:station:WAVCIS:CSI15:1,2009-03-10T07:00:00Z,28.8332,-90.8320,1016.13,11111222 
WAVCIS,ioos:station:WAVCIS:CSI15:1,2009-03-10T08:00:00Z,28.8332,-90.8320,1015.61,11111222 
WAVCIS,ioos:station:WAVCIS:CSI15:1,2009-03-10T09:00:00Z,28.8332,-90.8320,1015.17,11111222 
WAVCIS,ioos:station:WAVCIS:CSI15:1,2009-03-10T10:00:00Z,28.8332,-90.8320,1014.9,11111222 
WAVCIS,ioos:station:WAVCIS:CSI15:1,2009-03-10T11:00:00Z,28.8332,-90.8320,1014.69,11111222 
WAVCIS,ioos:station:WAVCIS:CSI15:1,2009-03-10T12:00:00Z,28.8332,-90.8320,1014.86,11111222 
WAVCIS,ioos:station:WAVCIS:CSI15:1,2009-03-10T13:00:00Z,28.8332,-90.8320,1015.57,11111222 
WAVCIS,ioos:station:WAVCIS:CSI15:1,2009-03-10T14:00:00Z,28.8332,-90.8320,1016.07,11111222 
WAVCIS,ioos:station:WAVCIS:CSI15:1,2009-03-10T15:00:00Z,28.8332,-90.8320,1016.55,11111222 
WAVCIS,ioos:station:WAVCIS:CSI15:1,2009-03-10T16:00:00Z,28.8332,-90.8320,1016.93,11111222 
WAVCIS,ioos:station:WAVCIS:CSI15:1,2009-03-10T17:00:00Z,28.8332,-90.8320,1017.12,11111222 
WAVCIS,ioos:station:WAVCIS:CSI15:1,2009-03-10T18:00:00Z,28.8332,-90.8320,1016.87,11111222 
WAVCIS,ioos:station:WAVCIS:CSI15:1,2009-03-10T19:00:00Z,28.8332,-90.8320,1016.42,11111222 
WAVCIS,ioos:station:WAVCIS:CSI15:1,2009-03-10T20:00:00Z,28.8332,-90.8320,1015.92,11111222 
WAVCIS,ioos:station:WAVCIS:CSI15:1,2009-03-10T21:00:00Z,28.8332,-90.8320,1015.46,11111222 
WAVCIS,ioos:station:WAVCIS:CSI15:1,2009-03-10T22:00:00Z,28.8332,-90.8320,1015.28,11111222 
WAVCIS,ioos:station:WAVCIS:CSI15:1,2009-03-10T23:00:00Z,28.8332,-90.8320,1015.38,11111222 
WAVCIS,ioos:station:WAVCIS:CSI15:1,2009-03-11T00:00:00Z,28.8332,-90.8320,1015.8,11111222 
WAVCIS,ioos:station:WAVCIS:CSI15:1,2009-03-11T01:00:00Z,28.8332,-90.8320,1015.97,11111222 
WAVCIS,ioos:station:WAVCIS:CSI15:1,2009-03-11T02:00:00Z,28.8332,-90.8320,1016.5,11111222 
WAVCIS,ioos:station:WAVCIS:CSI15:1,2009-03-11T03:00:00Z,28.8332,-90.8320,1016.78,11111222 
WAVCIS,ioos:station:WAVCIS:CSI15:1,2009-03-11T04:00:00Z,28.8332,-90.8320,1017.15,11111222 
WAVCIS,ioos:station:WAVCIS:CSI15:1,2009-03-11T05:00:00Z,28.8332,-90.8320,1016.99,11111222 
WAVCIS,ioos:station:WAVCIS:CSI15:1,2009-03-11T06:00:00Z,28.8332,-90.8320,1016.67,11111222 
WAVCIS,ioos:station:WAVCIS:CSI15:1,2009-03-11T07:00:00Z,28.8332,-90.8320,1016.63,11111222 
WAVCIS,ioos:station:WAVCIS:CSI15:1,2009-03-11T08:00:00Z,28.8332,-90.8320,1016.09,11111222 
WAVCIS,ioos:station:WAVCIS:CSI15:1,2009-03-11T09:00:00Z,28.8332,-90.8320,1016.31,11111222 
WAVCIS,ioos:station:WAVCIS:CSI15:1,2009-03-11T10:00:00Z,28.8332,-90.8320,1016.14,11111222 
WAVCIS,ioos:station:WAVCIS:CSI15:1,2009-03-11T11:00:00Z,28.8332,-90.8320,1016.35,11111222 
WAVCIS,ioos:station:WAVCIS:CSI15:1,2009-03-11T12:00:00Z,28.8332,-90.8320,1016.69,11111222 
WAVCIS,ioos:station:WAVCIS:CSI15:1,2009-03-11T13:00:00Z,28.8332,-90.8320,1017.21,11111222 
WAVCIS,ioos:station:WAVCIS:CSI15:1,2009-03-11T14:00:00Z,28.8332,-90.8320,1018.31,11111222 
WAVCIS,ioos:station:WAVCIS:CSI15:1,2009-03-11T15:00:00Z,28.8332,-90.8320,1019.02,11111222 
WAVCIS,ioos:station:WAVCIS:CSI15:1,2009-03-11T16:00:00Z,28.8332,-90.8320,1019.72,11111222 
WAVCIS,ioos:station:WAVCIS:CSI15:1,2009-03-11T17:00:00Z,28.8332,-90.8320,1019.63,11111222 
WAVCIS,ioos:station:WAVCIS:CSI15:1,2009-03-11T18:00:00Z,28.8332,-90.8320,1019.42,11111222 
WAVCIS,ioos:station:WAVCIS:CSI15:1,2009-03-11T19:00:00Z,28.8332,-90.8320,1018.75,11111222 
WAVCIS,ioos:station:WAVCIS:CSI15:1,2009-03-11T20:00:00Z,28.8332,-90.8320,1017.86,11111222 
WAVCIS,ioos:station:WAVCIS:CSI15:1,2009-03-11T21:00:00Z,28.8332,-90.8320,1017.46,11111222 
WAVCIS,ioos:station:WAVCIS:CSI15:1,2009-03-11T22:00:00Z,28.8332,-90.8320,1017.13,11111222 
WAVCIS,ioos:station:WAVCIS:CSI15:1,2009-03-11T23:00:00Z,28.8332,-90.8320,1016.91,11111222 
WAVCIS,ioos:station:WAVCIS:CSI15:1,2009-03-12T00:00:00Z,28.8332,-90.8320,1017.2,11111222 
WAVCIS,ioos:station:WAVCIS:CSI15:1,2009-03-12T01:00:00Z,28.8332,-90.8320,1017.4,11111222 
WAVCIS,ioos:station:WAVCIS:CSI15:1,2009-03-12T02:00:00Z,28.8332,-90.8320,1018.05,11111222 
WAVCIS,ioos:station:WAVCIS:CSI15:1,2009-03-12T03:00:00Z,28.8332,-90.8320,1018.32,11111222 
WAVCIS,ioos:station:WAVCIS:CSI15:1,2009-03-12T04:00:00Z,28.8332,-90.8320,1018.42,11111222 
WAVCIS,ioos:station:WAVCIS:CSI15:1,2009-03-12T05:00:00Z,28.8332,-90.8320,1018.17,11111222 
WAVCIS,ioos:station:WAVCIS:CSI15:1,2009-03-12T06:00:00Z,28.8332,-90.8320,1017.81,11111222 
WAVCIS,ioos:station:WAVCIS:CSI15:1,2009-03-12T07:00:00Z,28.8332,-90.8320,1017.72,11111222 
WAVCIS,ioos:station:WAVCIS:CSI15:1,2009-03-12T08:00:00Z,28.8332,-90.8320,1017.48,11111222 
WAVCIS,ioos:station:WAVCIS:CSI15:1,2009-03-12T09:00:00Z,28.8332,-90.8320,1017.01,11111222 
WAVCIS,ioos:station:WAVCIS:CSI15:1,2009-03-12T10:00:00Z,28.8332,-90.8320,1016.95,11111222 
WAVCIS,ioos:station:WAVCIS:CSI15:1,2009-03-12T11:00:00Z,28.8332,-90.8320,1016.96,11111222 